[[{"header":{"parameterUnit":"m.s-1","parameterCategory":2,"la1":30.2992,"la2":30.254,"lo1":-89.0895,"lo2":-89.0443,"dy":0.0025,"dx":0.0025,"nx":19,"ny":19,"refTime":"2026-05-24T09:00:00:Z","depth":"0","parameterNumber":2,"parameterNumberName":"U-component_of_CURRENTS"},"data":[0,0,0,0.0981,0.0981,0.0987,0.0987,0.1007,0.1007,0,0,0,0,0,0,0,0,0,0,0,0.0973,0.0973,0.0981,0.0981,0.0987,0.0987,0.1007,0.1007,0,0,0,0,0,0,0,0,0,0,0,0.0972,0.0973,0.0973,0.0981,0.0987,0.0987,0.1007,0.0997,0,0,0,0,0,0,0,0,0,0,0.099,0.0984,0.0973,0.0973,0.0981,0.0987,0.0987,0.0997,0.0998,0.1011,0,0.1012,0,0.1017,0.1009,0.1009,0,0,0,0.0973,0.0983,0.0986,0.0973,0.0982,0.0987,0.0982,0.0997,0.0999,0.1012,0.1012,0.1013,0.1017,0.101,0.101,0.1085,0.1086,0,0,0.0973,0.0973,0.0985,0.0987,0.0984,0.0982,0.0982,0.0998,0.1,0.1012,0.1014,0.1018,0.101,0.101,0.1085,0.1085,0,0,0,0.0978,0.0972,0.0974,0.0986,0.099,0.0982,0.0983,0.0999,0.1,0.1014,0.1018,0.101,0.101,0.1084,0.1085,0.1118,0,0,0,0.0977,0.0976,0.0974,0.0974,0.099,0.0994,0.0983,0.0998,0.1,0.1018,0.101,0.1011,0.1083,0.1085,0.1116,0.1123,0,0,0,0.0972,0.0975,0.0976,0.0974,0.0981,0.0993,0.0995,0.0998,0.1004,0.1009,0.1011,0.1083,0.1084,0.1114,0.112,0.1172,0,0,0,0.097,0.0972,0.0976,0.0989,0.0981,0.1008,0.0995,0.1014,0.1022,0.101,0.1084,0.1085,0.1113,0.1118,0.1169,0.122,0.1235,0,0,0.0972,0.0973,0.0983,0.0987,0.101,0.1007,0.1044,0.1046,0.1048,0.1076,0.1078,0.1116,0.112,0.1171,0.1297,0.131,0,0,0,0.0984,0.0988,0.0998,0.1013,0.1033,0.1057,0.1065,0.108,0.1111,0.1061,0.1134,0.1136,0.1167,0.1194,0.1204,0.1254,0.1091,0.1091,0.1091,0.0973,0.0992,0.101,0.1036,0.106,0.1097,0.1124,0.1149,0.1144,0.1173,0.1176,0.1255,0.1284,0.1292,0.1344,0.1196,0.1196,0.1196,0.1196,0.0979,0.0993,0.1021,0.1043,0.1079,0.1115,0.1179,0.1193,0.1257,0.123,0.126,0.1243,0.1306,0.1356,0.1199,0.1198,0.1198,0.1198,0.1197,0.0979,0.0986,0.1001,0.1032,0.1075,0.1124,0.1192,0.1241,0.1283,0.1317,0.1363,0.1363,0.1396,0.1342,0.1342,0.1342,0.1342,0.1343,0.1343,0.0966,0.0982,0.0987,0.1023,0.1043,0.11,0.1205,0.127,0.1375,0.1407,0.1407,0.1442,0.1299,0.128,0.1347,0.1346,0.1346,0.1345,0.1345,0.0964,0.0961,0.0969,0.0979,0.1025,0.1073,0.1182,0.1343,0.1429,0.1489,0.1583,0.1465,0.1462,0.1453,0.1439,0.1543,0.1543,0.1543,0.1543,0.0949,0.0953,0.0942,0.0951,0.0987,0.1057,0.1167,0.1337,0.1559,0.1672,0.1693,0.1675,0.1664,0.1671,0.1658,0.1647,0.1801,0.1801,0.1802,0.0936,0.0936,0.0919,0.0926,0.0962,0.1037,0.1133,0.131,0.1659,0.1815,0.1757,0.1746,0.1718,0.1697,0.1701,0.1679,0.1657,0,0]},{"header":{"parameterUnit":"m.s-1","parameterCategory":2,"la1":30.2992,"la2":30.254,"lo1":-89.0895,"lo2":-89.0443,"dy":0.0025,"dx":0.0025,"nx":19,"ny":19,"refTime":"2026-05-24T09:00:00:Z","depth":"0","parameterNumber":3,"parameterNumberName":"V-component_of_CURRENTS"},"data":[0,0,0,0.1054,0.1053,0.0992,0.0991,0.0861,0.086,0,0,0,0,0,0,0,0,0,0,0,0.107,0.107,0.1054,0.1053,0.0992,0.0991,0.0862,0.086,0,0,0,0,0,0,0,0,0,0,0,0.107,0.107,0.107,0.1053,0.0992,0.0991,0.0862,0.0917,0,0,0,0,0,0,0,0,0,0,0.0981,0.1011,0.107,0.107,0.1053,0.0992,0.0991,0.092,0.0913,0.088,0,0.0878,0,0.0874,0.0852,0.0851,0,0,0,0.1036,0.1017,0.1002,0.107,0.1052,0.0992,0.1015,0.0917,0.0909,0.0871,0.0876,0.0872,0.0872,0.0851,0.085,0.0749,0.0749,0,0,0.104,0.1052,0.1008,0.0998,0.1045,0.1017,0.1013,0.0912,0.0906,0.0876,0.0869,0.087,0.085,0.0849,0.0749,0.0749,0,0,0,0.1061,0.1055,0.1043,0.1003,0.1,0.1015,0.1011,0.091,0.0907,0.0868,0.0868,0.085,0.0848,0.0749,0.0749,0.0783,0,0,0,0.1062,0.1068,0.1045,0.105,0.1003,0.0963,0.1011,0.0914,0.0903,0.0869,0.0849,0.0847,0.075,0.0749,0.0783,0.0809,0,0,0,0.1071,0.1069,0.1065,0.1051,0.1033,0.0965,0.0955,0.0912,0.0904,0.0851,0.0846,0.075,0.0749,0.0782,0.0808,0.0793,0,0,0,0.108,0.1069,0.1066,0.1053,0.1034,0.099,0.0956,0.091,0.0867,0.0849,0.075,0.0749,0.0782,0.0807,0.0793,0.0814,0.0818,0,0,0.107,0.1068,0.1061,0.1056,0.1039,0.0997,0.0953,0.0885,0.0848,0.0776,0.0774,0.0783,0.0808,0.0793,0.0789,0.0794,0,0,0,0.106,0.1061,0.1052,0.1045,0.1011,0.0977,0.0912,0.0877,0.0815,0.0825,0.0764,0.0779,0.0769,0.078,0.0783,0.0732,0.0747,0.0747,0.0747,0.1069,0.1061,0.1052,0.1036,0.101,0.0951,0.0913,0.0852,0.0811,0.0791,0.0793,0.0788,0.08,0.0803,0.075,0.077,0.077,0.077,0.077,0.107,0.1061,0.106,0.1047,0.1017,0.0977,0.0905,0.0874,0.0815,0.0795,0.0783,0.0798,0.0809,0.075,0.0772,0.0772,0.0771,0.0771,0.0771,0.1071,0.1064,0.1063,0.1054,0.1037,0.0996,0.0974,0.0919,0.0854,0.0845,0.0828,0.0828,0.0788,0.0829,0.0829,0.0829,0.0829,0.0829,0.0829,0.1063,0.1062,0.106,0.1058,0.106,0.1053,0.101,0.0984,0.0921,0.0869,0.0869,0.0778,0.0806,0.0816,0.083,0.083,0.083,0.083,0.083,0.103,0.1044,0.1047,0.1051,0.1069,0.1085,0.1066,0.1028,0.0979,0.0949,0.0821,0.0867,0.0855,0.0852,0.0862,0.0887,0.0887,0.0887,0.0887,0.1012,0.1018,0.1028,0.104,0.1069,0.1089,0.1111,0.1091,0.0958,0.0875,0.0815,0.0803,0.0803,0.0786,0.0784,0.0792,0.0799,0.0798,0.0798,0.098,0.0998,0.0993,0.1023,0.1064,0.1102,0.1139,0.1151,0.0946,0.0787,0.0738,0.0742,0.0716,0.072,0.0687,0.0688,0.0699,0,0]}],[{"header":{"parameterUnit":"m.s-1","parameterCategory":2,"la1":30.2992,"la2":30.254,"lo1":-89.0895,"lo2":-89.0443,"dy":0.0025,"dx":0.0025,"nx":19,"ny":19,"refTime":"2026-05-24T09:00:00:Z","depth":"2","parameterNumber":2,"parameterNumberName":"U-component_of_CURRENTS"},"data":[0,0,0,0.1071,0.1071,0.1069,0.1069,0.1097,0.1097,0,0,0,0,0,0,0,0,0,0,0,0.1073,0.1073,0.1071,0.1071,0.1069,0.1069,0.1097,0.1097,0,0,0,0,0,0,0,0,0,0,0,0.1073,0.1073,0.1073,0.1071,0.1069,0.1069,0.1097,0.1092,0,0,0,0,0,0,0,0,0,0,0.109,0.1093,0.1073,0.1073,0.1071,0.1069,0.1069,0.1091,0.1092,0.1105,0,0.1102,0,0.1099,0.1099,0.1099,0,0,0,0.1075,0.1092,0.1084,0.1073,0.1071,0.1069,0.1071,0.1091,0.1092,0.1107,0.1103,0.1103,0.11,0.1099,0.11,0.1131,0.1131,0,0,0.1075,0.1082,0.1083,0.1085,0.1068,0.1071,0.1071,0.1092,0.1097,0.1103,0.1104,0.11,0.11,0.11,0.1131,0.1131,0,0,0,0.1073,0.1082,0.1073,0.1084,0.108,0.1071,0.1071,0.1096,0.1091,0.1104,0.1101,0.11,0.11,0.1131,0.1131,0.1138,0,0,0,0.1073,0.108,0.1073,0.1078,0.1079,0.1086,0.1075,0.1089,0.1091,0.11,0.11,0.1101,0.1131,0.1131,0.1137,0.1142,0,0,0,0.1074,0.1081,0.1078,0.1078,0.1075,0.1085,0.1081,0.1089,0.1089,0.1099,0.1101,0.1131,0.1131,0.1137,0.1141,0.1176,0,0,0,0.1085,0.1075,0.1078,0.1069,0.1075,0.1068,0.1081,0.1087,0.1095,0.11,0.1131,0.1131,0.1137,0.1141,0.1175,0.1196,0.1202,0,0,0.1075,0.1075,0.1067,0.1069,0.1059,0.1069,0.1072,0.1091,0.1104,0.1127,0.1127,0.1137,0.1141,0.1175,0.1209,0.1215,0,0,0,0.1066,0.1062,0.1059,0.1055,0.1054,0.1066,0.1078,0.1093,0.1121,0.1109,0.114,0.1142,0.1164,0.1175,0.1179,0.1132,0.1132,0.1132,0.1132,0.1086,0.107,0.1061,0.1047,0.1051,0.1067,0.1084,0.1109,0.1119,0.1137,0.115,0.1182,0.1193,0.1197,0.1151,0.1151,0.1151,0.1151,0.1151,0.1083,0.1074,0.1065,0.1055,0.1065,0.108,0.1103,0.112,0.1164,0.1159,0.118,0.1183,0.1202,0.1152,0.1151,0.1151,0.1151,0.1151,0.1151,0.1092,0.1083,0.1082,0.1072,0.1086,0.1099,0.1119,0.1144,0.1179,0.1196,0.1232,0.1232,0.1196,0.1218,0.1219,0.1219,0.1219,0.1219,0.1219,0.1113,0.1101,0.1095,0.1088,0.1091,0.1104,0.1138,0.117,0.1228,0.1247,0.1247,0.1205,0.1203,0.1201,0.1222,0.1221,0.1221,0.1221,0.1221,0.111,0.1113,0.1093,0.109,0.1085,0.1066,0.111,0.1189,0.1249,0.1288,0.1282,0.1279,0.1285,0.1281,0.1281,0.1322,0.1322,0.1322,0.1322,0.1116,0.1111,0.1096,0.1077,0.106,0.1046,0.1046,0.1036,0.1123,0.1083,0.1092,0.105,0.1054,0.1043,0.1045,0.1038,0.1015,0.1014,0.1013,0.1114,0.1107,0.1094,0.1071,0.1046,0.101,0.0971,0.0867,0.0819,0.0987,0.0899,0.1328,0.1294,0.1289,0.1293,0.1287,0.1286,0,0]},{"header":{"parameterUnit":"m.s-1","parameterCategory":2,"la1":30.2992,"la2":30.254,"lo1":-89.0895,"lo2":-89.0443,"dy":0.0025,"dx":0.0025,"nx":19,"ny":19,"refTime":"2026-05-24T09:00:00:Z","depth":"2","parameterNumber":3,"parameterNumberName":"V-component_of_CURRENTS"},"data":[0,0,0,-0.0294,-0.0295,-0.0308,-0.0308,-0.036,-0.0361,0,0,0,0,0,0,0,0,0,0,0,-0.0279,-0.0279,-0.0294,-0.0295,-0.0308,-0.0308,-0.036,-0.0361,0,0,0,0,0,0,0,0,0,0,0,-0.0279,-0.0279,-0.0279,-0.0295,-0.0308,-0.0308,-0.036,-0.0339,0,0,0,0,0,0,0,0,0,0,-0.0321,-0.0291,-0.0279,-0.0279,-0.0295,-0.0308,-0.0308,-0.0338,-0.0341,-0.0367,0,-0.0367,0,-0.0376,-0.0366,-0.0367,0,0,0,-0.0286,-0.0289,-0.031,-0.0279,-0.0296,-0.0308,-0.03,-0.0339,-0.0342,-0.0371,-0.0368,-0.037,-0.0376,-0.0367,-0.0367,-0.0427,-0.0427,0,0,-0.0285,-0.0267,-0.0308,-0.0312,-0.0298,-0.0299,-0.03,-0.034,-0.0334,-0.0368,-0.0371,-0.0377,-0.0367,-0.0368,-0.0427,-0.0427,0,0,0,-0.0289,-0.0266,-0.0285,-0.031,-0.0315,-0.03,-0.0301,-0.0331,-0.0343,-0.0372,-0.0378,-0.0368,-0.0369,-0.0427,-0.0427,-0.0391,0,0,0,-0.0288,-0.0269,-0.0285,-0.0271,-0.0314,-0.0316,-0.0291,-0.0339,-0.0344,-0.0378,-0.0368,-0.0369,-0.0427,-0.0427,-0.0392,-0.0385,0,0,0,-0.0279,-0.0268,-0.0273,-0.0271,-0.0284,-0.0316,-0.0328,-0.034,-0.0349,-0.0367,-0.037,-0.0427,-0.0427,-0.0393,-0.0386,-0.0376,0,0,0,-0.0255,-0.027,-0.0272,-0.0283,-0.0284,-0.0317,-0.0327,-0.0339,-0.0351,-0.0368,-0.0427,-0.0427,-0.0393,-0.0387,-0.0377,-0.0231,-0.0216,0,0,-0.0268,-0.027,-0.0279,-0.0283,-0.0314,-0.0315,-0.0337,-0.035,-0.0365,-0.0415,-0.0416,-0.0392,-0.0386,-0.0376,-0.0243,-0.0227,0,0,0,-0.028,-0.0284,-0.0294,-0.0306,-0.0331,-0.034,-0.0356,-0.0361,-0.0374,-0.0376,-0.0406,-0.0404,-0.0398,-0.0313,-0.0301,-0.0428,-0.0428,-0.0428,-0.0428,-0.0255,-0.0279,-0.0296,-0.0326,-0.034,-0.0358,-0.0358,-0.037,-0.0386,-0.038,-0.0385,-0.0369,-0.0276,-0.0266,-0.0393,-0.0393,-0.0392,-0.0392,-0.0392,-0.0269,-0.0283,-0.0297,-0.0312,-0.0326,-0.0333,-0.0363,-0.0356,-0.0364,-0.0376,-0.0371,-0.0292,-0.025,-0.039,-0.039,-0.0391,-0.0391,-0.0391,-0.0391,-0.0245,-0.0265,-0.0249,-0.0273,-0.0272,-0.0297,-0.0302,-0.032,-0.0331,-0.0327,-0.0239,-0.0237,-0.0343,-0.032,-0.032,-0.032,-0.032,-0.032,-0.032,-0.0229,-0.0234,-0.0223,-0.024,-0.0234,-0.0239,-0.0257,-0.0247,-0.0208,-0.0198,-0.0196,-0.0345,-0.0347,-0.034,-0.0319,-0.0319,-0.0319,-0.0319,-0.0319,-0.0244,-0.0211,-0.0213,-0.0198,-0.021,-0.0186,-0.0189,-0.0091,-0.0092,-0.0034,-0.0122,-0.0127,-0.0127,-0.0135,-0.0123,-0.0048,-0.0048,-0.0048,-0.0048,-0.0236,-0.0234,-0.0199,-0.0192,-0.0201,-0.0174,-0.0014,0.012,0.0129,0.0107,0.01,0.0125,0.0112,0.0124,0.0109,0.0125,0.0265,0.0265,0.0266,-0.0252,-0.0233,-0.0204,-0.0188,-0.0193,-0.014,0.011,0.0311,0.0255,0.027,0.0076,-0.0011,0.0007,-0.0007,-0.0005,-0.0021,-0.0004,0,0]}],[{"header":{"parameterUnit":"m.s-1","parameterCategory":2,"la1":30.2992,"la2":30.254,"lo1":-89.0895,"lo2":-89.0443,"dy":0.0025,"dx":0.0025,"nx":19,"ny":19,"refTime":"2026-05-24T09:00:00:Z","depth":"4","parameterNumber":2,"parameterNumberName":"U-component_of_CURRENTS"},"data":[0,0,0,0.0237,0.0238,0.0259,0.0259,0.0144,0.0143,0,0,0,0,0,0,0,0,0,0,0,0.0231,0.0231,0.0237,0.0238,0.0259,0.0259,0.0144,0.0143,0,0,0,0,0,0,0,0,0,0,0,0.0231,0.0231,0.0231,0.0238,0.0259,0.0259,0.0145,0.0162,0,0,0,0,0,0,0,0,0,0,0.0159,0.0176,0.0231,0.0231,0.0238,0.0259,0.0259,0.0165,0.0161,0.0097,0,0.011,0,0.0122,0.0132,0.0132,0,0,0,0.0231,0.018,0.0185,0.0232,0.0239,0.0259,0.0247,0.0164,0.016,0.0091,0.0109,0.0105,0.0121,0.0131,0.0131,0.0013,0.0013,0,0,0.023,0.0227,0.0189,0.0183,0.0253,0.0247,0.0248,0.0163,0.0158,0.0108,0.0103,0.0119,0.013,0.0129,0.0014,0.0013,0,0,0,0.0231,0.0226,0.0237,0.0187,0.0202,0.0248,0.0249,0.0162,0.0167,0.0102,0.0117,0.013,0.0128,0.0014,0.0014,0.0046,0,0,0,0.023,0.0228,0.0237,0.0234,0.0205,0.0201,0.025,0.0173,0.0164,0.0118,0.0129,0.0126,0.0014,0.0014,0.0046,0.006,0,0,0,0.0228,0.0227,0.0234,0.0234,0.0247,0.0204,0.0204,0.0172,0.0172,0.0132,0.0126,0.0014,0.0014,0.0045,0.0059,0.0085,0,0,0,0.0218,0.0218,0.0234,0.0231,0.0247,0.023,0.0205,0.0184,0.0153,0.0129,0.0014,0.0014,0.0045,0.0058,0.0084,0.0075,0,0,0,0.0209,0.0217,0.0214,0.0228,0.022,0.0227,0.0198,0.0153,0.0122,0.003,0.0029,0.0046,0.0059,0.0084,0.0055,0,0,0,0,0.0203,0.0205,0.0204,0.0207,0.02,0.0192,0.0162,0.0144,0.0096,0.0105,0.003,0.0037,0.0052,0.0043,0.0012,0.0012,0.0012,0.0012,0.0012,0.0175,0.0182,0.0176,0.0182,0.0171,0.0157,0.0145,0.0109,0.0078,0.007,0.0052,0.0076,0.0066,0.0037,0.0037,0.0038,0.0038,0.0038,0.0038,0.0158,0.0151,0.0163,0.0163,0.0156,0.0132,0.0105,0.0102,0.0083,0.0059,0.0073,0.0062,0.0041,0.004,0.004,0.0039,0.0039,0.0039,0.0039,0.0131,0.013,0.0143,0.0146,0.0138,0.0127,0.0124,0.0114,0.0107,0.012,0.0119,0.0099,0.0111,0.0137,0.0137,0.0137,0.0137,0.0137,0.0137,0.0094,0.0108,0.0114,0.0127,0.0129,0.0132,0.0141,0.0142,0.0145,0.0151,0.0138,0.011,0.0107,0.0116,0.014,0.014,0.0139,0.0139,0.0139,0.0055,0.0065,0.0078,0.0088,0.0108,0.0116,0.014,0.0166,0.0183,0.0185,0.0166,0.0164,0.0154,0.015,0.0161,0.0199,0.0199,0.0199,0,0.0019,0.0027,0.0047,0.0065,0.0083,0.0102,0.0138,0.0155,0.0166,0.0173,0.0158,0.0135,0.0134,0.0119,0.0116,0.0126,0,0,0,-0.0008,0.0005,0.0013,0.0045,0.007,0.0108,0.0146,0.0161,0.0175,0.018,0.0199,0.0199,0.0126,0.0148,0.0128,0.0124,0.0139,0,0]},{"header":{"parameterUnit":"m.s-1","parameterCategory":2,"la1":30.2992,"la2":30.254,"lo1":-89.0895,"lo2":-89.0443,"dy":0.0025,"dx":0.0025,"nx":19,"ny":19,"refTime":"2026-05-24T09:00:00:Z","depth":"4","parameterNumber":3,"parameterNumberName":"V-component_of_CURRENTS"},"data":[0,0,0,-0.0311,-0.0314,-0.0473,-0.0474,-0.0547,-0.0548,0,0,0,0,0,0,0,0,0,0,0,-0.0258,-0.0259,-0.0311,-0.0315,-0.0473,-0.0474,-0.0547,-0.0548,0,0,0,0,0,0,0,0,0,0,0,-0.0258,-0.0259,-0.0261,-0.0315,-0.0473,-0.0474,-0.0547,-0.046,0,0,0,0,0,0,0,0,0,0,-0.0322,-0.0301,-0.0259,-0.0261,-0.0316,-0.0473,-0.0474,-0.0457,-0.0465,-0.0438,0,-0.0472,0,-0.0507,-0.0549,-0.055,0,0,0,-0.0316,-0.0294,-0.0327,-0.0261,-0.0318,-0.0473,-0.0402,-0.0463,-0.0472,-0.0448,-0.0473,-0.0477,-0.0509,-0.055,-0.055,-0.055,-0.055,0,0,-0.0307,-0.0292,-0.0322,-0.0333,-0.0368,-0.0397,-0.0407,-0.047,-0.0485,-0.0474,-0.048,-0.051,-0.055,-0.055,-0.0551,-0.055,0,0,0,-0.0281,-0.0286,-0.0321,-0.0329,-0.0367,-0.0401,-0.0413,-0.0483,-0.0492,-0.0481,-0.0511,-0.055,-0.055,-0.0551,-0.055,-0.0532,0,0,0,-0.0276,-0.0271,-0.0317,-0.0311,-0.0366,-0.0447,-0.0424,-0.0488,-0.0497,-0.051,-0.055,-0.0551,-0.0551,-0.0551,-0.0533,-0.051,0,0,0,-0.0249,-0.0268,-0.0288,-0.0309,-0.0377,-0.0447,-0.0462,-0.0492,-0.0514,-0.055,-0.0551,-0.0551,-0.0551,-0.0534,-0.0512,-0.0466,0,0,0,-0.0226,-0.0252,-0.0288,-0.0328,-0.0375,-0.0434,-0.0463,-0.0516,-0.0546,-0.055,-0.0551,-0.055,-0.0535,-0.0513,-0.0468,-0.0428,0,0,0,-0.0235,-0.0253,-0.0273,-0.0309,-0.0355,-0.0412,-0.0454,-0.051,-0.0524,-0.0522,-0.0523,-0.0533,-0.0512,-0.0467,-0.0401,0,0,0,0,-0.026,-0.0276,-0.0295,-0.0342,-0.0388,-0.0429,-0.0491,-0.0505,-0.0526,-0.0542,-0.0528,-0.0515,-0.0487,-0.0469,-0.0548,-0.0548,-0.0548,-0.0548,-0.0548,-0.0244,-0.0273,-0.0303,-0.0344,-0.0381,-0.0444,-0.0467,-0.0492,-0.0511,-0.0512,-0.0498,-0.0446,-0.0427,-0.0503,-0.0503,-0.0503,-0.0503,-0.0503,-0.0503,-0.0241,-0.0257,-0.0298,-0.034,-0.0381,-0.0421,-0.0446,-0.0465,-0.0447,-0.0476,-0.045,-0.0449,-0.0501,-0.0501,-0.0502,-0.0502,-0.0502,-0.0502,-0.0502,-0.0225,-0.0233,-0.0275,-0.0324,-0.0362,-0.0404,-0.0381,-0.0406,-0.0415,-0.0396,-0.0353,-0.0416,-0.0419,-0.0374,-0.0374,-0.0373,-0.0373,-0.0373,-0.0373,-0.019,-0.0224,-0.0247,-0.0299,-0.0323,-0.0332,-0.0336,-0.0306,-0.0315,-0.0308,-0.0373,-0.0401,-0.0406,-0.041,-0.0368,-0.0369,-0.0369,-0.037,-0.037,-0.0166,-0.0183,-0.0205,-0.023,-0.0256,-0.0249,-0.0254,-0.0208,-0.0164,-0.0141,-0.0259,-0.0265,-0.0259,-0.0266,-0.0266,-0.0179,-0.0178,-0.0177,0,-0.0136,-0.0147,-0.0166,-0.0176,-0.0166,-0.0192,-0.0121,-0.0097,-0.012,-0.0142,-0.0152,-0.0287,-0.0292,-0.0288,-0.0293,-0.0294,0,0,0,-0.011,-0.012,-0.0121,-0.0143,-0.0137,-0.0104,-0.0101,-0.0089,-0.0145,-0.0075,-0.0159,-0.0164,-0.0239,-0.0354,-0.0359,-0.0364,-0.0372,0,0]}]]